DELTA 1 R/B, 862

Orbit data source: Space-Track

DELTA 1 R/B, 862 is space debris in HEO originally from a launch on Wed, 19 Aug 1964 UTC launched from the Air Force Eastern Test Range (AFETR). Debris objects in space refer to the collection of defunct objects orbiting the Earth. Examples of debris include non-operational satellites, rocket bodies, and fragments generated from explosions, collisions, or faulty payload assembly.

Loading next visibility...
DELTA 1 R/B details
Identifier
862, 1964-047B
Orbit
HEO
Last TLE update1 day ago
Origin
Flag of USGSFC (US)
ManufacturerABL
MissionSpacecraft
Bus & MotorALTAIR, Unknown motor
Mass~38 kg wet, ~38 kg dry
Launch date (UTC)
1964-08-19 (60 years ago)
Launch vehicleUnknown
Launch site
Air Force Eastern Test Range (AFETR)
Object type
Payload
Rocket body
Debris
Shape & HBRCyl, 1.5 m
Radar Cross Section0.687 m², Medium (>0.1 m² and < 1m²)

Expand to show TLE details & history

TLE from 1 day ago
0 DELTA 1 R/B
1 00862U 64047B   25037.49204357  .00000302  00000-0  00000-0 0  9993
2 00862  15.7927 112.8296 7129583 123.8102 324.3424  2.05103607247986
Epoch: 2025-02-06T11:48Z
Definitive object data (Epoch: 2025-02-06T11:48:32.564Z)
Latitude0.00003°
Longitude158.76978°
Altitude15,002.31 km
Speed4.696 km/s
True Right ascension07h 31m 05s
True Declination0° 00' 00"
Sunlit
Object was in daylight at TLE epoch
Visualization TLE readout
Latitude-15.4772°
Longitude80.88461°
Altitude31,316.641 km
Speed2.432 km/s
Apparent Right ascension02h 41m 26s
Apparent Declination-19° 36' 36"
Sunlit
Object is in daylight
Visualization observer readout
Local Sidereal Time17:41:23
Azimuth75.674° E
Elevation-46.579°
Doppler factor1
Orbital elements
Apogee altitude38,452.205 km
Perigee altitude1,134.117 km
Semi-major axis26,171.298 km
Eccentricity0.7129583
Inclination15.7927°
RAAN112.8296°
Arg. of periapsis123.8102°
True anomaly236.0369°
Mean anomaly324.3424°
Eccentric anomaly284.85889°
Mean motion0.51263 °/min
BSTARUnknown
Orbital period702.26 mins
Loading maneuver chart data...
Loading historical data...
Loading historical data...
Loading historical data...
Loading historical data...
Loading historical data...
Loading historical data...
Loading historical data...
Other satellites on launch #47 in the year 1964 (1964-08-19 UTC)

DELTA 1 R/B Visibility forecast

Observer location: undefined°, undefined

Span
Click to sort rows by Start time (UTC) header in descending order
Start Az.
Max El. time (UTC)
Max El. Az.
Max El.
End time (UTC)
End Az.
38 mins2025-02-08 02:42:50.767Z226.336° WSW2025-02-08 03:01:50.767Z227.235° WSW10.158°2025-02-08 03:20:50.767Z228.462° WSW
12 mins2025-02-08 11:28:50.767Z237.741° WSW2025-02-08 11:36:50.767Z202.822° SW16.491°2025-02-08 11:40:50.767Z168.81° S
|